TimeCST,TemperatureF,Dew PointF,Humidity,Sea Level PressureIn,VisibilityMPH,Wind Direction,Wind SpeedMPH,Gust SpeedMPH,PrecipitationIn,Events,Conditions,WindDirDegrees,DateUTC
12:15 AM,31.8,30.4,94,30.33,10.0,Calm,Calm,-,N/A,,Clear,0,2013-11-08 06:15:00
12:35 AM,32.0,30.9,96,30.33,10.0,Calm,Calm,-,N/A,,Clear,0,2013-11-08 06:35:00
1:15 AM,30.4,29.5,96,30.34,10.0,SW,3.5,-,N/A,,Clear,220,2013-11-08 07:15:00
1:35 AM,31.8,31.1,97,30.33,10.0,Calm,Calm,-,N/A,,Clear,0,2013-11-08 07:35:00
1:55 AM,31.6,31.1,98,30.34,10.0,Calm,Calm,-,N/A,,Clear,0,2013-11-08 07:55:00
2:15 AM,30.9,30.6,99,30.34,10.0,SW,3.5,-,N/A,,Clear,220,2013-11-08 08:15:00
2:35 AM,31.5,30.7,97,30.34,10.0,Calm,Calm,-,N/A,,Clear,0,2013-11-08 08:35:00
2:55 AM,31.6,30.9,97,30.34,10.0,Calm,Calm,-,N/A,,Clear,0,2013-11-08 08:55:00
3:15 AM,29.8,28.6,95,30.35,10.0,Calm,Calm,-,N/A,,Clear,0,2013-11-08 09:15:00
3:35 AM,30.4,30.2,99,30.35,10.0,Calm,Calm,-,N/A,,Clear,0,2013-11-08 09:35:00
3:55 AM,30.2,30.0,99,30.36,10.0,Calm,Calm,-,N/A,,Clear,0,2013-11-08 09:55:00
4:15 AM,30.2,29.7,98,30.36,10.0,SW,3.5,-,N/A,,Clear,230,2013-11-08 10:15:00
4:35 AM,31.3,30.9,99,30.36,10.0,Calm,Calm,-,N/A,,Clear,0,2013-11-08 10:35:00
4:55 AM,29.7,28.9,97,30.36,10.0,Calm,Calm,-,N/A,,Clear,0,2013-11-08 10:55:00
5:15 AM,29.7,29.3,99,30.37,10.0,Calm,Calm,-,N/A,,Clear,0,2013-11-08 11:15:00
5:35 AM,28.9,28.4,98,30.37,10.0,Calm,Calm,-,N/A,,Clear,0,2013-11-08 11:35:00
5:55 AM,29.1,28.4,97,30.38,10.0,SW,5.8,-,N/A,,Clear,220,2013-11-08 11:55:00
6:15 AM,30.6,29.8,97,30.38,10.0,SSW,3.5,-,N/A,,Clear,210,2013-11-08 12:15:00
6:35 AM,31.3,30.4,96,30.39,10.0,WSW,5.8,-,N/A,,Clear,240,2013-11-08 12:35:00
6:55 AM,31.3,30.4,96,30.40,10.0,Calm,Calm,-,N/A,,Clear,0,2013-11-08 12:55:00
7:15 AM,32.0,31.3,97,30.40,10.0,Calm,Calm,-,N/A,,Clear,0,2013-11-08 13:15:00
7:35 AM,34.5,33.3,95,30.40,10.0,Calm,Calm,-,N/A,,Clear,0,2013-11-08 13:35:00
7:55 AM,35.8,34.3,94,30.40,10.0,Calm,Calm,-,N/A,,Clear,0,2013-11-08 13:55:00
8:15 AM,38.5,36.1,91,30.41,10.0,Calm,Calm,-,N/A,,Clear,0,2013-11-08 14:15:00
8:35 AM,41.5,37.2,85,30.41,10.0,SW,4.6,-,N/A,,Clear,220,2013-11-08 14:35:00
8:55 AM,44.1,36.3,74,30.41,10.0,West,4.6,-,N/A,,Clear,260,2013-11-08 14:55:00
9:15 AM,45.0,34.5,67,30.41,10.0,Calm,Calm,-,N/A,,Clear,0,2013-11-08 15:15:00
9:35 AM,46.0,33.3,61,30.41,10.0,Calm,Calm,-,N/A,,Clear,0,2013-11-08 15:35:00
9:55 AM,46.9,33.1,59,30.41,10.0,Calm,Calm,-,N/A,,Clear,0,2013-11-08 15:55:00
10:15 AM,48.2,33.4,57,30.40,10.0,Calm,Calm,-,N/A,,Clear,0,2013-11-08 16:15:00
10:35 AM,49.1,32.7,53,30.39,10.0,Calm,Calm,-,N/A,,Clear,0,2013-11-08 16:35:00
10:55 AM,50.9,32.9,50,30.39,10.0,Calm,Calm,-,N/A,,Clear,0,2013-11-08 16:55:00
11:15 AM,51.6,30.4,44,30.38,10.0,Calm,Calm,-,N/A,,Clear,0,2013-11-08 17:15:00
11:35 AM,52.2,31.5,45,30.37,10.0,SSW,3.5,-,N/A,,Clear,210,2013-11-08 17:35:00
11:55 AM,53.2,30.4,42,30.35,10.0,SSW,6.9,-,N/A,,Clear,200,2013-11-08 17:55:00
12:15 PM,53.6,29.5,40,30.34,10.0,SSW,5.8,-,N/A,,Clear,210,2013-11-08 18:15:00
12:35 PM,54.0,30.0,40,30.33,10.0,SSE,5.8,-,N/A,,Clear,160,2013-11-08 18:35:00
12:55 PM,53.8,30.4,41,30.32,10.0,South,6.9,-,N/A,,Clear,170,2013-11-08 18:55:00
1:15 PM,54.1,30.6,41,30.31,10.0,SSE,6.9,-,N/A,,Clear,160,2013-11-08 19:15:00
1:35 PM,53.6,32.0,44,30.30,10.0,South,9.2,-,N/A,,Clear,180,2013-11-08 19:35:00
1:55 PM,53.1,32.0,45,30.30,10.0,SSW,9.2,-,N/A,,Clear,200,2013-11-08 19:55:00
2:15 PM,54.0,32.5,44,30.29,10.0,South,5.8,-,N/A,,Clear,190,2013-11-08 20:15:00
2:35 PM,55.2,31.6,41,30.29,10.0,South,10.4,-,N/A,,Clear,180,2013-11-08 20:35:00
2:55 PM,55.4,31.8,41,30.29,10.0,South,12.7,-,N/A,,Clear,180,2013-11-08 20:55:00
3:15 PM,54.7,31.5,41,30.28,10.0,South,10.4,-,N/A,,Clear,180,2013-11-08 21:15:00
3:35 PM,54.3,29.3,38,30.27,10.0,South,8.1,-,N/A,,Clear,180,2013-11-08 21:35:00
3:55 PM,54.0,30.7,41,30.26,10.0,South,8.1,-,N/A,,Clear,180,2013-11-08 21:55:00
4:15 PM,52.7,29.5,41,30.26,10.0,South,8.1,-,N/A,,Clear,180,2013-11-08 22:15:00
4:35 PM,51.1,31.1,46,30.25,10.0,South,8.1,-,N/A,,Clear,170,2013-11-08 22:35:00
4:55 PM,48.7,32.0,52,30.25,10.0,South,5.8,-,N/A,,Clear,170,2013-11-08 22:55:00
5:15 PM,46.2,32.5,59,30.24,10.0,SSE,5.8,-,N/A,,Clear,160,2013-11-08 23:15:00
5:35 PM,45.5,32.9,61,30.24,10.0,SSE,6.9,-,N/A,,Clear,160,2013-11-08 23:35:00
5:55 PM,46.9,32.9,58,30.23,10.0,South,5.8,-,N/A,,Clear,170,2013-11-08 23:55:00
6:15 PM,46.4,32.7,59,30.23,10.0,South,6.9,-,N/A,,Clear,170,2013-11-09 00:15:00
6:35 PM,47.3,32.4,56,30.22,10.0,South,6.9,-,N/A,,Clear,170,2013-11-09 00:35:00
6:55 PM,47.3,32.2,56,30.21,10.0,South,8.1,-,N/A,,Clear,170,2013-11-09 00:55:00
7:15 PM,46.8,32.0,57,30.22,10.0,South,6.9,-,N/A,,Clear,170,2013-11-09 01:15:00
7:35 PM,45.0,32.0,60,30.20,10.0,SSE,8.1,-,N/A,,Clear,160,2013-11-09 01:35:00
7:55 PM,44.1,32.0,63,30.21,10.0,South,6.9,-,N/A,,Clear,170,2013-11-09 01:55:00
8:15 PM,43.7,32.0,63,30.22,10.0,SSE,4.6,-,N/A,,Clear,160,2013-11-09 02:15:00
8:35 PM,42.8,32.0,66,30.22,10.0,South,3.5,-,N/A,,Clear,180,2013-11-09 02:35:00
8:55 PM,41.9,32.0,68,30.21,10.0,South,6.9,-,N/A,,Clear,180,2013-11-09 02:55:00
9:15 PM,43.3,32.2,65,30.22,10.0,South,6.9,-,N/A,,Clear,190,2013-11-09 03:15:00
9:35 PM,44.6,32.0,61,30.21,10.0,South,9.2,-,N/A,,Clear,180,2013-11-09 03:35:00
9:55 PM,44.1,32.0,63,30.21,10.0,South,8.1,-,N/A,,Clear,180,2013-11-09 03:55:00
10:15 PM,43.9,32.0,63,30.20,10.0,South,8.1,-,N/A,,Clear,180,2013-11-09 04:15:00
10:35 PM,43.7,32.2,64,30.20,10.0,South,9.2,-,N/A,,Clear,170,2013-11-09 04:35:00
10:55 PM,44.1,32.0,63,30.19,10.0,South,8.1,-,N/A,,Clear,170,2013-11-09 04:55:00
11:15 PM,43.9,32.0,63,30.19,10.0,South,9.2,-,N/A,,Clear,170,2013-11-09 05:15:00
11:35 PM,43.5,32.0,64,30.19,10.0,South,9.2,-,N/A,,Clear,180,2013-11-09 05:35:00
11:55 PM,43.3,32.0,64,30.19,10.0,South,9.2,-,N/A,,Clear,180,2013-11-09 05:55:00